Regional Weather Roundup
Issued by NWS

Home | Current Version | Previous Version | Text Only | Print | Product List | Glossary On
Versions: 1 2 3 4 5 6 7 8 9 10 11 12 13 14 15 16 17 18 19 20 21 22 23 24 25 26 27 28 29 30 31 32 33 34 35 36 37 38 39 40 41 42 43 44 45 46 47 48 49 50
000
ASUS46 KLOX 240512
RWRCA

SOUTHERN CALIFORNIA WEATHER ROUNDUP
NATIONAL WEATHER SERVICE OXNARD CALIFORNIA
1000 PM PDT WED JUL 23 2014

NOTE: "FAIR" INDICATES FEW OR NO CLOUDS BELOW 12,000 FEET WITH NO
SIGNIFICANT WEATHER AND/OR OBSTRUCTIONS TO VISIBILITY.

  -  STATIONS PRECEEDED BY AN ASTERISK (*) ARE NOT NWS OR FAA
     STATIONS AND ARE NOT SUBJECT TO NWS AND FAA QUALITY CONTROL.

CAZ041-042-087-240600-
LA AND ORANGE COUNTY COASTAL AREAS


CITY           SKY/WX    TMP DP  RH WIND       PRES   REMARKS
L.A. DOWNTOWN  CLEAR     72  60  66 CALM      29.89R
L.A. AIRPORT   CLEAR     69  62  78 SW7       29.89R
LONG BEACH     CLEAR     73  63  70 VRB3      29.89R

CITY           SKY/WX    TMP DP  RH WIND       PRES   REMARKS
AVALON           N/A     68 N/A N/A S3          N/A
FULLERTON      CLEAR     75  58  55 CALM      29.89R
*GETTY CENTER    N/A     75  57  53 SW3         N/A
HAWTHORNE      CLEAR     70  62  76 VRB6      29.89R
*LEO CARRILLO    N/A     69  61  75 NW2G23      N/A
*LOS ALAMITOS  CLEAR     69  65  87 S6        29.90R
*REDONDO BEACH   N/A     69  61  76 W6        29.88S
SANTA ANA      PTCLDY    75  63  66 SW5       29.90R
STA MONICA APT CLEAR     73  61  65 CALM      29.89R
*UCLA            N/A     70  59  68 CALM      29.87R

$$

CAZ547-548-048-240600-
LA COUNTY VALLEYS AND INLAND EMPIRE


CITY           SKY/WX    TMP DP  RH WIND       PRES   REMARKS
BURBANK        CLEAR     79  57  46 VRB6      29.90R
VAN NUYS       CLEAR     82  55  39 SE3       29.90R

CITY           SKY/WX    TMP DP  RH WIND       PRES   REMARKS
CORONA AIRPORT CLEAR     76  56  49 MISG      29.91R
CHINO          CLEAR     74  55  51 W5        29.92R
MARCH AFB      CLEAR     77  44  31 N5        29.95R
*NORTHRIDGE      N/A     79  52  38 CALM        N/A
ONTARIO        PTCLDY    80  54  40 SW7       29.92R
*PASADENA        N/A     75  61  60 CALM        N/A
RIVERSIDE      CLEAR     80  50  34 W5        29.92R
SAN BERNARDINO NOT AVBL
*SAN GABRIEL     N/A     75  57  52 S3        29.86R
*SAN RAFAEL HI   N/A     73  50  44 SW7         N/A
*SAUGUS          N/A     81  55  40 W3          N/A
*WHITEMAN AP   NOT AVBL
*WHITTIER HILL   N/A     66  59  77 SE5         N/A
*WOODLAND HILL   N/A     77  54  44 NE1         N/A

$$

CAZ054-055-240600-
LA AND SAN BERNARDINO COUNTY MOUNTAINS


CITY           SKY/WX    TMP DP  RH WIND       PRES   REMARKS
*BIG BEAR AIRP CLEAR     59  19  21 CALM      30.34R
*CHILAO          N/A     75  34  22 E8          N/A
MT WILSON NWS    N/A     73  14  10 MISG        N/A
SANDBERG       CLEAR     70  48  45 N14       30.16S
*WARM SPRINGS    N/A     75  37  25 NW16G28     N/A

$$

CAZ028-029-059-060-099-240600-
ANTELOPE VALLEY AND SURROUNDING AREAS


CITY           SKY/WX    TMP DP  RH WIND       PRES   REMARKS
LANCASTER      CLEAR     78  49  35 W20       29.99S
PALMDALE       CLEAR     80  41  24 W8        30.00S
*POPPY PARK      N/A     77  46  32 W18G30      N/A

CITY           SKY/WX    TMP DP  RH WIND       PRES   REMARKS
29 PALMS       CLEAR     93  27   9 CALM      29.97R
BARSTOW/DAGGET CLEAR     92  36  14 W14       29.93R
BISHOP         CLEAR     79  23  12 N8        30.01R
CHINA LAKE     CLEAR     87  46  24 SE17      29.90R
EDWARDS AFB    PTCLDY    80  44  27 SW6       29.97R
MOJAVE         FAIR      77  50  38 W23G29    29.99S
NEEDLES        CLEAR    104  25   6 W15       29.77R HX  96
VICTORVILLE    CLEAR     82  37  20 W8        30.03R

$$

CAZ039-040-240600-
VENTURA AND SANTA BARBARA COUNTY COAST


CITY           SKY/WX    TMP DP  RH WIND       PRES   REMARKS
CAMARILLO      CLEAR     70  60  70 CALM      29.88S
NWS OXNARD       N/A     69  61  76 CALM      29.88S
OXNARD AIRPORT CLEAR     67  61  81 W5        29.88S
*POINT MUGU    PTCLDY    69  61  75 NW5       29.89S
SBA APT/GOLETA CLEAR     73  63  70 SE8       29.86R
*SANTA BARBARA   N/A     74  61  64 CALM      29.95R
*VENTURA         N/A     71  60  68 CALM      29.93R

$$

CAZ044-045-240600-
VENTURA COUNTY VALLEYS


CITY           SKY/WX    TMP DP  RH WIND       PRES   REMARKS
*SIMI VALLEY     N/A     74  58  58 CALM      29.84R
*OJAI            N/A     71  59  66 CALM      29.82R
*FILLMORE        N/A     72  62  70 CALM      29.80R

$$

CAZ053-240600-
VENTURA COUNTY MOUNTAINS


CITY           SKY/WX    TMP DP  RH WIND       PRES   REMARKS
*LOCKWOOD VLY    N/A     63  43  48 CALM        N/A
*ROSE VALLEY     N/A     68  50  52 MISG        N/A

$$

CAZ034-035-036-240600-
CENTRAL COAST AND SANTA YNEZ VALLEY


CITY           SKY/WX    TMP DP  RH WIND       PRES   REMARKS
SAN LUIS OBISP PTCLDY    62  60  93 NW9       29.99R
SANTA MARIA    MOCLDY    64  60  87 W9        29.99R

CITY           SKY/WX    TMP DP  RH WIND       PRES   REMARKS
*CAL POLY SLO    N/A    N/A N/A N/A W7          N/A
*CAMBRIA         N/A     60  58  92 CALM      29.88R
*LOMPOC          N/A     64  57  77 W12       30.00S
*PISMO BEACH     N/A     65  61  85 NE2       29.98R

$$

CAZ037-038-051-240600-
SAN LUIS OBISPO COUNTY INTERIOR AND CUYAMA VALLEY


CITY           SKY/WX    TMP DP  RH WIND       PRES   REMARKS
*CUYAMA          N/A     73  57  57 SE3       29.95S
PASO ROBLES    CLEAR     72  54  53 NW16      30.00R

$$

CAZ032-033-061-240600-
SOUTHERN DESERTS


CITY           SKY/WX    TMP DP  RH WIND       PRES   REMARKS
BLYTHE         CLEAR    104  33   8 W8        29.73R HX  97
IMPERIAL       CLEAR     99  44  15 W12       29.71R HX  95
PALM SPRINGS   CLEAR    103  37  10 NW13      29.77R HX  97
THERMAL        CLEAR     98  43  15 NW7       29.70R HX  94

$$

ELSEWHERE ACROSS THE WESTERN UNITED STATES AND MEXICO


CITY           SKY/WX    TMP DP  RH WIND       PRES   REMARKS
DENVER, CO     MOCLDY    72  47  40 S6        30.22F
GRAND CANYON,  CLOUDY    77  42  28 S5        30.32R
HONOLULU, HI   MOCLDY    81  66  61 NE18      30.04R
KAHULUI, MAUI  PTCLDY    79  68  69 NE17G26   30.03R
LAKE TAHOE, CA CLEAR     60  40  47 S6        30.28R
LAS VEGAS, NV  PTCLDY    99  22   6 S9        29.83R HX  92
MAMMOTH LAKES, FAIR      63  25  23 W5        30.30S
MEXICO CITY, M MOCLDY    59  50  72 N7        30.40R
PHOENIX, AZ    CLOUDY   102  59  24 N9        29.85R HX 102
PORTLAND, OR   PTCLDY    62  51  67 S8        30.14R
RENO, NV       CLEAR     74  39  28 W9G23     30.14S
SALT LAKE CITY MOCLDY    90  42  18 S20       29.94S
SAN DIEGO, CA  PTCLDY    72  64  76 W5        29.92R
SAN FRANCISCO, PTCLDY    65  59  81 W16       30.06R
SAN JOSE, CA   PTCLDY    65  56  72 NW10      30.06F
SEATTLE, WA    MOCLDY    59  51  75 S7        30.09R
TIJUANA, MEX   CLEAR     68  61  77 W7        29.95R

$$

STATION/POSITION TIME  TEMP    WIND        PRES    VSBY  WAVE
                       AIR SEA DIR/SP/G                  HT/PER
                 (UTC) (F)     (DEG/KT/KT) (MB)    (MI)  (FT/S)
POINT ARGUELLO B NOT AVBL
WEST SANTA BARBA 0400   63 60  320/ 23/ 29 1012.9F         6/ 6
POINT CONCEPTION NOT AVBL
EAST SANTA BARBA 0400   67 66  280/ 19/ 25 1010.8S
SANTA MONICA BAY 0400   69 69  280/ 10/ 14 1011.2F         5/ 6



USA.gov is the U.S. government's official web portal to all federal, state and local government web resources and services.